Vertical_Velocity
-1 -0 -0 -0 -2 1 0 -1 0 1 -0 -2 -2 -2 0 -1 2 -0 1 0 0 2 1 0 3 -0 -4 -1 2 -7 17 -2 2 2 0 -0 0 2 3 1 4 2 5 2 1 1 0 -1 1
-0 -1 -1 0 1 3 -1 -1 -3 -2 -1 -0 0 -0 0 -5 -0 -2 -1 2 -1 -2 -1 1 0 2 1 10 -4 11 -3 7 -2 3 3 -0 1 -3 -0 4 3 1 1 2 3 1 5 -3 0
0 0 -0 -0 -2 -1 0 -0 -1 -1 -1 -1 -3 -1 -1 -1 0 -0 -3 -5 -2 -1 -1 -1 1 -0 1 -4 7 -1 4 -0 5 -1 2 4 1 3 -1 3 2 2 2 1 1 3 -0 2 -2
-0 -1 -2 -1 -1 -1 0 0 0 -1 1 3 1 -3 -3 2 -2 0 4 1 -4 -5 -1 -3 -1 1 0 -3 -2 -1 6 -2 9 -2 1 2 2 3 4 2 2 4 5 15 5 4 1 2 3
-1 -1 -0 -1 0 1 -1 -1 -0 -1 -1 -2 -2 -4 -3 -2 -0 -3 -4 -1 1 3 -2 -4 -2 2 -3 2 -1 -4 -3 3 -5 0 3 4 2 -0 5 2 6 0 6 9 9 3 2 0 0
-2 -1 -0 -1 -1 -1 -2 -4 -1 -2 -2 -4 -5 -4 -3 -2 0 0 -3 -4 -5 -1 -3 -1 -5 -5 1 1 -1 -0 -6 0 4 14 7 3 2 2 4 2 8 -16 6 7 8 5 1 3 -0
-3 -2 -3 -2 -3 -2 -2 -1 -1 0 -2 -3 -3 -3 -1 0 -3 -2 -4 -5 -3 -7 -3 -2 -3 -7 -5 1 -1 -2 -3 -3 -1 -7 -1 17 1 3 2 4 9 12 -27 3 3 4 3 5 2
-3 -2 -2 -2 -2 -1 -1 -1 -0 -2 -1 -4 -2 -5 -4 -3 -2 -3 -4 -4 -2 -6 -6 -3 -3 -4 -5 -3 2 -2 -2 -1 -2 5 -6 -2 9 12 8 8 9 3 11 -14 6 2 2 4 -0
-2 -2 -2 0 -1 -3 -3 -3 -2 -3 -4 -3 -2 1 -0 -2 -3 -5 -3 -3 1 -2 -5 -4 -5 -3 -4 -4 -5 1 -5 -2 -2 1 4 3 -12 -14 10 10 8 5 -2 -2 -6 2 -1 0 2
-2 -2 0 0 0 -1 -4 -0 0 -0 -3 -3 -2 0 -0 -3 -3 -2 -5 -6 -7 -4 -5 -3 -5 -3 -5 -6 -3 -4 -1 -7 -0 -3 -1 -1 8 -8 17 13 8 7 3 9 -5 -2 -3 29 1
-1 -1 -2 -2 -1 -3 -1 1 -2 -1 -2 -1 -3 -2 -3 -1 -5 -4 -3 -2 -3 -3 -5 -5 -3 -3 -1 -1 -2 0 1 -2 -3 1 -2 -4 11 4 -4 -3 8 12 7 -8 -4 1 12 3 0
-1 -2 -2 -0 -2 -3 -1 -1 -2 -2 -4 -3 -1 -2 -4 -5 -2 -3 -1 -3 -3 -3 -4 -3 -3 -1 0 -0 -2 -1 3 1 -4 0 1 -2 -5 4 5 -3 20 13 13 4 -19 7 6 4 0
-1 -2 -2 -1 -1 -2 -2 -1 -2 -1 -3 -3 -3 -3 -3 -2 -2 -1 -1 -3 -4 -4 -2 -3 -4 -3 1 1 -2 -2 2 1 -1 -1 -1 0 -3 -2 -7 5 4 -6 22 32 76 64 9 1 4
-2 -2 -1 -1 -3 -2 -0 -0 0 -3 -3 -4 -4 -4 -2 1 -2 -1 -3 -1 0 -5 -2 -1 -2 -5 -2 -1 -1 -0 -2 0 0 1 -2 -0 -3 -1 -2 3 -17 -17 23 9 20 70 5 8 6
-2 -3 -2 -2 -1 -0 -3 -1 -2 -2 -1 -3 -5 -4 -3 -4 -4 -3 -0 -0 1 2 1 -6 -1 -1 -5 -3 -1 1 -2 -5 -6 1 -1 0 1 -6 0 0 5 13 -5 -21 21 -30 88 4 2
-5 -2 -2 -2 -1 -1 -1 -2 -2 -4 -3 -4 -3 -4 -4 -6 -3 -2 0 -3 -1 -1 -1 6 4 -0 0 0 -1 -2 -2 -4 -7 -4 -3 0 -0 -0 -4 -3 -3 -2 -13 4 4 24 10 -0 9
-1 -1 -3 -3 -1 -1 -1 2 -4 -1 -3 -3 -2 -4 -5 -5 -3 -3 -3 0 -2 -1 -1 -2 -1 -2 -4 -2 -2 0 -1 -1 -2 -3 -5 -3 -0 0 -2 -2 -1 3 -1 -2 -17 9 25 3 12
-5 -2 -1 -1 -4 1 -2 1 3 -7 -1 -3 -3 -4 -5 -6 -4 -2 -3 -4 1 0 -1 -1 -4 -2 -3 -5 -4 -3 -3 -2 -0 -5 -6 -4 -3 1 -2 -2 -1 -0 -2 -15 -5 -21 -19 78 -4
-0 -3 -2 1 -0 -9 1 -2 1 -1 -3 -3 -2 -2 -1 -4 -3 -3 -3 -2 -6 -0 1 -5 -3 -1 -2 -1 -7 -1 -5 -3 -4 -2 -3 -9 -4 -1 -1 -3 -0 0 -2 -1 -17 -9 -27 16 54
-2 -2 -1 -3 5 -6 -1 -3 -4 -6 -5 -1 -2 -0 -2 -1 -2 -3 -3 -3 -3 -6 -5 -1 1 -0 -0 -3 -2 -4 -4 -4 -4 -1 -2 -8 -7 -3 -0 -3 0 4 0 -1 3 -9 -22 -9 116
-1 -1 -2 -0 -2 0 -3 -6 -4 -3 -4 -3 -0 0 -1 -1 1 -3 -3 -3 -2 -0 -1 -3 -5 -3 -3 1 -2 -0 -4 -3 -4 -1 -1 -4 -6 -4 -4 -2 -4 1 2 4 5 -1 -4 -17 29
-3 -1 -2 -2 -1 -1 -1 -7 -6 -4 -1 -2 -2 -3 -0 -2 -3 -1 -2 -0 -2 -1 -1 2 2 -2 2 1 -3 -1 -4 -1 2 -3 -5 -0 -5 -2 -3 1 -3 -4 -2 4 2 4 2 -28 -15
-4 -3 -2 -1 -2 0 -2 2 -4 0 -0 -2 1 -1 -1 0 0 -1 -1 -2 2 1 -1 0 1 -1 2 -0 0 -1 -1 -3 -4 -1 2 -2 1 -7 -3 -2 1 -4 -4 2 5 10 -3 -2 -5
0 -2 0 1 1 1 -3 0 -15 -1 -0 -1 -2 -3 -1 -3 -1 -3 -1 -2 -1 -1 -0 0 -1 3 -1 -2 1 -1 -2 2 0 -2 -2 0 -0 1 -3 -4 1 0 -3 -1 -1 15 -2 4 -12
-1 -1 -2 -2 -1 1 -0 0 -11 2 -0 0 -4 -2 -1 0 -0 -2 -2 -2 -3 -2 -1 -1 -2 -0 3 -2 -3 -2 -2 -5 -5 1 1 0 3 1 -2 -4 0 -2 -4 3 -2 0 -1 1 -3
-0 -2 -1 2 0 -2 -5 -8 -4 6 1 -3 2 -0 -0 -0 -4 -2 -1 -2 -1 -2 -1 -3 -4 -3 -1 0 -3 -2 -1 -2 -4 -7 -5 -2 -3 0 4 -3 -5 1 -2 -2 -2 -9 17 9 -2
-2 -1 1 0 -3 0 -1 -6 -11 1 3 3 2 -1 0 1 -1 -4 -0 -1 -1 -1 -1 -4 -5 -3 -3 -0 -0 -3 -3 -3 -1 -1 -8 -7 -4 2 -1 0 -3 -1 -3 1 1 -7 14 18 20
-1 1 -2 -0 2 -2 -2 -8 -12 -0 5 2 2 -1 -0 -4 -2 -3 -3 -1 -1 -3 -3 -1 0 -3 -5 -4 -1 -0 -1 -3 -2 0 -3 -7 -9 -1 2 5 -2 -1 1 0 1 -2 10 -15 15
-1 -2 -0 -2 -2 2 0 -17 3 -6 -3 4 5 -0 -5 -2 -1 -4 -7 -2 -5 -5 -3 -2 -1 -4 -3 -6 -4 -3 -0 -0 -1 -4 -2 -0 -2 -7 -2 4 1 -1 -3 2 2 1 9 19 2
3 1 2 -2 -1 -1 -0 -53 7 -1 2 4 4 -2 -0 6 3 -1 -5 -1 -3 -3 -1 -2 -2 -4 -5 -6 -5 -5 -5 -4 -4 -5 -2 -1 -5 -6 -4 -2 2 -4 -1 3 7 -4 1 10 11
Height
3158 3157 3157 3157 3162 3159 3159 3161 3159 3159 3159 3158 3158 3158 3158 3157 3156 3157 3148 3146 3144 3141 3140 3138 3138 3139 3141 3140 3140 3143 3138 3141 3143 3143 3142 3144 3145 3148 3149 3151 3153 3154 3154 3155 3157 3157 3158 3159 3161
3158 3157 3157 3157 3161 3159 3160 3158 3159 3159 3158 3156 3155 3154 3154 3153 3153 3150 3148 3145 3143 3141 3138 3136 3134 3133 3134 3134 3135 3135 3137 3137 3138 3140 3140 3140 3141 3143 3146 3147 3150 3151 3153 3153 3155 3157 3157 3159 3160
3158 3157 3158 3157 3158 3159 3159 3158 3158 3156 3155 3154 3152 3152 3151 3149 3148 3146 3143 3140 3138 3136 3134 3132 3131 3129 3128 3130 3128 3130 3130 3133 3134 3135 3137 3137 3138 3140 3142 3144 3146 3149 3150 3151 3153 3155 3156 3158 3159
3158 3159 3159 3159 3157 3158 3158 3157 3156 3154 3153 3152 3151 3150 3148 3146 3142 3139 3135 3133 3131 3130 3128 3126 3125 3124 3123 3122 3124 3122 3124 3127 3128 3130 3132 3133 3135 3137 3138 3141 3143 3144 3148 3150 3151 3153 3156 3157 3158
3158 3158 3158 3157 3157 3157 3157 3156 3154 3153 3152 3150 3148 3146 3143 3139 3136 3132 3129 3125 3122 3120 3119 3119 3118 3116 3116 3116 3117 3118 3119 3119 3122 3124 3127 3129 3130 3133 3135 3137 3139 3141 3144 3146 3148 3151 3154 3156 3157
3158 3158 3159 3158 3158 3157 3156 3155 3153 3151 3149 3147 3145 3142 3138 3133 3129 3125 3122 3118 3117 3115 3113 3112 3110 3108 3107 3107 3108 3111 3112 3113 3114 3117 3120 3124 3126 3127 3130 3133 3135 3136 3140 3143 3146 3148 3151 3153 3156
3159 3158 3158 3158 3158 3156 3154 3152 3150 3148 3146 3144 3141 3136 3132 3127 3123 3118 3115 3113 3110 3108 3105 3103 3102 3100 3099 3097 3098 3102 3105 3106 3107 3109 3113 3116 3119 3122 3124 3128 3130 3130 3134 3140 3143 3146 3148 3151 3154
3157 3157 3156 3156 3155 3154 3151 3149 3148 3146 3144 3140 3137 3130 3125 3121 3116 3112 3110 3108 3106 3103 3101 3098 3095 3094 3092 3090 3089 3091 3096 3099 3101 3102 3105 3108 3111 3113 3118 3122 3124 3126 3128 3133 3139 3143 3145 3148 3151
3156 3156 3155 3154 3153 3152 3149 3148 3145 3142 3138 3133 3127 3123 3119 3114 3111 3109 3106 3104 3102 3100 3097 3094 3092 3089 3087 3085 3082 3082 3085 3089 3093 3095 3098 3098 3100 3104 3110 3115 3119 3121 3124 3126 3133 3137 3141 3145 3148
3155 3154 3153 3152 3151 3149 3147 3144 3141 3138 3133 3129 3125 3119 3115 3110 3108 3105 3103 3101 3099 3097 3093 3091 3088 3085 3083 3082 3079 3077 3077 3081 3083 3088 3089 3092 3093 3097 3101 3109 3113 3117 3120 3121 3123 3131 3136 3141 3142
3154 3153 3152 3151 3148 3147 3144 3141 3138 3135 3132 3127 3122 3116 3112 3107 3104 3102 3099 3097 3094 3092 3090 3087 3085 3083 3080 3078 3076 3073 3072 3074 3077 3079 3083 3084 3086 3090 3096 3100 3107 3111 3114 3117 3117 3123 3131 3133 3137
3154 3152 3150 3148 3146 3144 3141 3139 3136 3132 3130 3125 3118 3112 3108 3103 3099 3097 3095 3093 3092 3090 3087 3084 3082 3080 3077 3075 3073 3070 3069 3069 3070 3072 3074 3077 3080 3082 3088 3093 3097 3104 3107 3112 3117 3114 3121 3127 3132
3152 3151 3149 3147 3144 3141 3138 3135 3132 3129 3126 3122 3116 3110 3104 3099 3095 3092 3091 3090 3088 3085 3082 3080 3078 3076 3073 3072 3070 3068 3066 3066 3066 3066 3067 3068 3073 3077 3081 3084 3088 3097 3097 3103 3092 3110 3110 3119 3125
3152 3150 3147 3144 3142 3139 3135 3132 3129 3127 3123 3120 3113 3107 3102 3096 3093 3089 3086 3085 3084 3081 3077 3076 3074 3072 3069 3067 3066 3064 3062 3062 3061 3062 3061 3062 3065 3070 3075 3077 3082 3087 3087 3096 3096 3090 3102 3108 3119
3150 3149 3146 3142 3139 3135 3132 3129 3127 3123 3120 3116 3110 3105 3100 3095 3091 3086 3082 3079 3078 3077 3073 3070 3067 3066 3064 3061 3061 3060 3058 3056 3056 3055 3056 3057 3058 3062 3065 3070 3073 3077 3082 3088 3091 3091 3096 3103 3112
3149 3147 3144 3140 3135 3132 3129 3126 3122 3120 3117 3111 3107 3103 3099 3094 3086 3081 3078 3075 3073 3070 3067 3063 3061 3060 3057 3055 3054 3053 3052 3051 3051 3051 3051 3052 3053 3056 3059 3061 3065 3067 3074 3080 3087 3085 3093 3098 3105
3147 3145 3141 3136 3132 3128 3127 3122 3118 3115 3112 3108 3104 3101 3097 3091 3083 3077 3073 3070 3068 3064 3061 3059 3056 3054 3051 3049 3046 3045 3045 3045 3044 3044 3046 3046 3047 3049 3053 3054 3057 3059 3063 3068 3078 3082 3087 3092 3098
3146 3141 3136 3133 3130 3125 3122 3117 3112 3108 3107 3104 3101 3097 3092 3087 3081 3075 3070 3066 3063 3060 3056 3053 3050 3047 3043 3041 3038 3037 3036 3036 3036 3035 3037 3039 3039 3041 3044 3047 3049 3051 3055 3061 3070 3077 3080 3082 3090
3145 3140 3133 3127 3123 3119 3115 3112 3109 3106 3103 3101 3096 3091 3086 3082 3077 3072 3067 3062 3059 3055 3051 3047 3042 3040 3035 3031 3029 3027 3026 3026 3027 3026 3026 3027 3031 3033 3036 3040 3040 3044 3049 3054 3060 3066 3074 3076 3079
3142 3137 3132 3127 3117 3113 3108 3106 3104 3102 3099 3096 3092 3086 3081 3075 3071 3066 3061 3055 3051 3048 3044 3041 3036 3031 3027 3020 3015 3013 3012 3016 3015 3017 3016 3017 3020 3023 3026 3030 3033 3035 3042 3047 3052 3058 3065 3074 3073
3139 3134 3130 3124 3113 3109 3104 3098 3097 3095 3093 3090 3086 3082 3076 3070 3065 3060 3054 3047 3042 3037 3032 3026 3024 3019 3015 3010 3004 3001 3000 3000 3005 3005 3005 3006 3008 3012 3015 3019 3024 3026 3031 3039 3044 3049 3055 3065 3066
3135 3132 3127 3119 3114 3109 3106 3099 3091 3090 3088 3086 3082 3078 3073 3066 3060 3054 3048 3041 3035 3030 3025 3019 3014 3010 3006 3001 2994 2992 2990 2990 2991 2993 2996 2996 2996 2999 3003 3008 3013 3017 3021 3027 3034 3040 3047 3055 3062
3135 3128 3121 3113 3109 3106 3103 3101 3086 3086 3085 3082 3078 3074 3069 3063 3057 3051 3043 3037 3032 3025 3019 3012 3005 3001 2998 2993 2987 2984 2982 2981 2981 2981 2982 2984 2985 2987 2991 2995 3001 3006 3011 3017 3023 3032 3039 3047 3055
3129 3123 3114 3109 3107 3106 3102 3102 3080 3081 3080 3077 3074 3070 3065 3058 3051 3045 3038 3032 3026 3019 3013 3006 2998 2991 2989 2985 2980 2975 2972 2972 2971 2972 2971 2973 2974 2975 2978 2983 2988 2994 3000 3007 3013 3022 3029 3035 3044
3129 3124 3116 3111 3105 3101 3100 3098 3079 3077 3075 3073 3069 3065 3059 3053 3046 3039 3031 3025 3019 3011 3004 2997 2991 2981 2975 2971 2969 2967 2963 2959 2958 2959 2959 2960 2961 2962 2964 2969 2974 2982 2988 2995 3002 3010 3018 3024 3035
3128 3128 3129 3124 3110 3099 3094 3086 3076 3074 3072 3069 3064 3059 3054 3047 3040 3033 3025 3017 3011 3004 2996 2988 2981 2971 2962 2956 2953 2952 2951 2949 2945 2943 2942 2943 2945 2947 2951 2953 2960 2967 2976 2982 2990 2998 3007 3013 3024
3127 3127 3127 3121 3114 3111 3088 3078 3070 3069 3068 3064 3059 3053 3047 3041 3034 3026 3018 3011 3003 2996 2988 2979 2970 2961 2953 2944 2939 2937 2932 2930 2933 2931 2930 2928 2928 2930 2934 2939 2944 2952 2961 2969 2977 2988 2995 3002 3012
3127 3126 3122 3121 3114 3101 3081 3078 3068 3066 3064 3060 3055 3048 3042 3036 3027 3019 3012 3003 2995 2986 2977 2968 2960 2950 2942 2934 2927 2922 2918 2915 2913 2915 2916 2915 2914 2912 2916 2920 2927 2934 2944 2953 2962 2973 2982 2994 3002
3121 3119 3119 3119 3117 3108 3092 3072 3065 3063 3060 3056 3050 3044 3037 3029 3019 3010 3003 2994 2986 2976 2967 2958 2947 2938 2931 2924 2916 2909 2906 2902 2898 2896 2895 2896 2896 2895 2896 2902 2909 2918 2927 2937 2946 2959 2970 2977 2995
3116 3114 3114 3117 3111 3107 3102 3065 3062 3060 3056 3050 3042 3037 3030 3021 3011 3000 2991 2982 2974 2964 2956 2946 2935 2925 2919 2913 2904 2900 2895 2890 2886 2884 2881 2879 2879 2879 2879 2882 2890 2900 2910 2920 2930 2944 2956 2967 2981